Weather observations for the past three days for
Thomaston, Thomaston-Upson County Airport
Imperial (Metric)
Date Time (edt) Wind (mph) Vis. (mi.) Weather Sky Cond. Temperature (ºF) Relative Humidity Wind Chill (°F) Heat Index (°F) Pressure Precipitation (in)
Air Dwpt 6 hour altimeter (in) sea level (mb) 1 hr 3 hr 6 hr
Max. Min.
18 15:55 SW 8 10.00 Partly Cloudy SCT039 89.6 64.4 43% 91 30.01 0.0 0.01
18 15:35 SW 8 10.00 Partly Cloudy SCT037 87.8 64.4 46% 89 30.02 0.0 0.01
18 15:15 SW 9 10.00 Partly Cloudy SCT037 87.8 64.4 46% 89 30.03 0.0
18 14:55 SW 8 10.00 Partly Cloudy SCT034 87.8 64.4 46% 89 30.04 0.0 0.02
18 14:35 SW 7 10.00 Partly Cloudy SCT032 86 66.2 52% 88 30.05 0.0 0.01
18 14:15 W 7 10.00 Partly Cloudy SCT032 86 64.4 49% 87 30.05 0.0 0.01
18 13:55 W 7 10.00 Fair CLR 86 64.4 49% 87 30.07 0.0 0.01
18 13:35 SW 8 10.00 Fair CLR 86 66.2 52% 88 30.07 0.0 0.01
18 13:15 SW 7 10.00 Partly Cloudy SCT026 84.2 66.2 55% 87 30.08 0.0
18 12:55 W 6 10.00 Partly Cloudy SCT026 82.4 68 62% 85 30.08 0.0 0.01
18 12:35 W 5 10.00 Fair CLR 82.4 66.2 58% 85 30.08 0.0
18 12:15 SW 6 10.00 Fair CLR 82.4 66.2 58% 85 30.09 0.0
18 11:55 SW 5 10.00 Fair CLR 80.6 66.2 62% 83 30.09 0.0 0.01
18 11:35 W 5 10.00 Fair CLR 80.6 66.2 62% 83 30.09 0.0 0.01
18 11:15 W 3 10.00 Fair CLR 80.6 66.2 62% 83 30.1 0.0
18 10:55 W 5 10.00 Fair CLR 80.6 66.2 62% 83 30.1 0.0
18 10:35 SW 5 10.00 Fair CLR 80.6 66.2 62% 83 30.1 0.0
18 10:15 W 7 10.00 Fair CLR 80.6 68 66% 83 30.11 0.0
18 09:55 W 8 10.00 Fair CLR 78.8 66.2 65% 81 30.11 0.0
18 09:35 W 9 10.00 Fair CLR 77 66.2 69% 79 30.11 0.0
18 09:15 W 8 10.00 Fair CLR 77 66.2 69% 79 30.1 0.0
18 08:55 SW 7 10.00 Fair CLR 75.2 68 78% 76 30.09 0.0
18 08:35 W 6 10.00 Fair CLR 73.4 68 83% 30.09 0.0
18 07:35 W 6 4.00 Fog/Mist OVC002 71.6 68 88% 30.08 0.0
18 07:15 W 3 1.25 Fog/Mist OVC002 71.6 68 88% 30.08 0.0
18 06:55 SW 3 0.50 Fog OVC002 71.6 68 88% 30.07 0.0
18 06:35 Calm 0.75 Fog/Mist OVC002 71.6 68 88% 30.06 0.0
18 06:15 Calm 7.00 Fair CLR 71.6 68 88% 30.05 0.0
18 05:55 Calm 10.00 Fair CLR 71.6 68 88% 30.05 0.0
18 05:35 SW 3 10.00 Partly Cloudy SCT002 71.6 68 88% 30.05 0.0
18 05:15 Calm 7.00 Mostly Cloudy BKN002 71.6 68 88% 30.04 0.0
18 04:55 W 3 7.00 Overcast OVC002 71.6 68 88% 30.04 0.0
18 04:35 Calm 7.00 Overcast OVC002 71.6 68 88% 30.05 0.0
18 04:15 W 3 7.00 Overcast OVC002 71.6 68 88% 30.05 0.0
18 03:55 W 7 7.00 Overcast OVC004 71.6 68 88% 30.05 0.0
18 03:35 W 6 10.00 Overcast OVC004 71.6 68 88% 30.05 0.0
18 03:15 SW 3 10.00 Mostly Cloudy BKN006 71.6 68 88% 30.05 0.0
18 02:55 SW 5 10.00 Partly Cloudy SCT008 71.6 68 88% 30.05 0.0
18 02:35 W 6 10.00 Mostly Cloudy BKN010 BKN013 71.6 68 88% 30.05 0.0
18 02:15 W 3 10.00 Mostly Cloudy BKN014 71.6 68 88% 30.06 0.0
18 01:55 SW 3 10.00 Fair CLR 71.6 68 88% 30.06 0.0
18 01:35 SW 3 10.00 Fair CLR 71.6 68 88% 30.07 0.0
18 01:15 SW 3 10.00 Fair CLR 71.6 68 88% 30.06 0.0
18 00:55 S 3 10.00 Fair CLR 71.6 68 88% 30.05 0.0
18 00:35 Calm 10.00 Fair CLR 71.6 68 88% 30.05 0.0
18 00:15 SW 3 10.00 Fair CLR 71.6 68 88% 30.05 0.0
17 23:55 W 3 10.00 Partly Cloudy SCT002 71.6 68 88% 30.05 0.0
17 23:35 Calm 10.00 Partly Cloudy SCT002 71.6 68 88% 30.05 0.0
17 23:15 S 5 10.00 Partly Cloudy SCT002 71.6 68 88% 30.06 0.0
17 22:55 Calm 10.00 Fair CLR 71.6 68 88% 30.07 0.0
17 22:35 Calm 10.00 Partly Cloudy SCT003 71.6 68 88% 30.06 0.0
17 22:15 SW 3 10.00 Mostly Cloudy BKN003 71.6 68 88% 30.07 0.0
17 21:55 S 5 10.00 Partly Cloudy SCT003 71.6 68 88% 30.07 0.0
17 21:35 S 5 10.00 Fair CLR 71.6 68 88% 30.08 0.0
17 21:15 S 6 10.00 Partly Cloudy SCT055 71.6 68 88% 30.08 0.0
17 20:55 S 3 10.00 Partly Cloudy SCT055 71.6 68 88% 30.09 0.0 0.01
17 20:35 SW 5 10.00 Fair CLR 71.6 68 88% 30.1 0.0 0.01
17 20:15 SW 5 10.00 Partly Cloudy SCT004 SCT010 SCT020 71.6 68 88% 30.09 0.0 0.01
17 19:55 SW 7 10.00 Light Drizzle SCT004 SCT020 SCT044 71.6 68 88% 30.08 0.0
17 19:35 S 5 10.00 Light Rain BKN120 71.6 68 88% 30.07 0.0
17 19:15 S 6 10.00 Thunderstorm Light Rain in Vicinity OVC120 71.6 68 88% 30.06 0.0
17 18:55 S 7 10.00 Thunderstorm Light Rain in Vicinity BKN120 73.4 68 83% 30.07 0.0
17 18:35 SW 6 10.00 Thunderstorm Light Rain SCT120 73.4 68 83% 30.06 0.0
17 18:15 SW 5 10.00 Thunderstorm in Vicinity SCT090 SCT120 75.2 68 78% 76 30.03 0.0
17 17:55 W 8 10.00 Thunderstorm Light Drizzle in Vicinity BKN090 BKN110 75.2 68 78% 76 30.03 0.0
17 17:35 W 8 10.00 Thunderstorm SCT100 BKN120 77 64.4 65% 79 30.04 0.0
17 17:15 W 9 10.00 Thunderstorm SCT042 SCT050 SCT065 75.2 66.2 74% 77 30.03 0.0
17 16:55 NW 7 10.00 Thunderstorm Rain SCT012 BKN045 OVC065 73.4 64.4 74% 30.02 0.0
17 16:35 N 18 G 36 7.00 Thunderstorm Rain SCT023 BKN044 OVC050 78.8 64.4 61% 81 30.03 0.0
17 16:15 N 12 G 17 10.00 Thunderstorm SCT046 SCT055 BKN070 87.8 64.4 46% 89 30.02 0.0
17 15:55 W 5 10.00 Fair CLR 91.4 62.6 38% 92 30.01 0.0
17 15:35 W 9 10.00 Partly Cloudy SCT044 SCT050 91.4 64.4 41% 93 30.01 0.0
17 15:15 SW 6 10.00 Thunderstorm in Vicinity CLR 91.4 64.4 41% 93 30.02 0.0
17 14:55 SW 7 10.00 Partly Cloudy SCT042 SCT048 SCT060 89.6 66.2 46% 92 30.03 0.0 0.01
17 14:35 W 3 10.00 Partly Cloudy SCT046 SCT060 SCT120 89.6 64.4 43% 91 30.04 0.0
17 14:15 W 6 10.00 Partly Cloudy SCT034 SCT050 SCT070 89.6 66.2 46% 92 30.05 0.0
17 13:55 W 3 10.00 Fair CLR 87.8 66.2 49% 90 30.06 0.0 0.01
17 13:35 W 5 10.00 Partly Cloudy SCT033 SCT039 87.8 68 52% 91 30.07 0.0 0.01
17 13:15 NW 8 10.00 Partly Cloudy SCT038 87.8 68 52% 91 30.08 0.0
17 12:55 W 8 10.00 Partly Cloudy SCT031 87.8 68 52% 91 30.08 0.0 0.02
17 12:35 W 8 10.00 Fair CLR 87.8 68 52% 91 30.08 0.0 0.01
17 12:15 W 8 10.00 Fair CLR 86 68 55% 89 30.08 0.0 0.01
17 11:55 NW 3 10.00 Fair CLR 86 68 55% 89 30.08 0.0 0.02
17 11:35 W 8 10.00 Partly Cloudy SCT024 84.2 68 58% 87 30.09 0.0 0.01
17 11:15 W 6 10.00 Partly Cloudy SCT024 82.4 68 62% 85 30.09 0.0 0.01
17 10:55 NW 6 10.00 Partly Cloudy SCT024 82.4 68 62% 85 30.1 0.0 0.02
17 10:35 NW 6 10.00 Fair CLR 82.4 68 62% 85 30.11 0.0 0.01
17 10:15 NW 9 10.00 Fair CLR 80.6 68 66% 83 30.11 0.0 0.01
17 09:55 W 7 10.00 Fair CLR 80.6 68 66% 83 30.11 0.0
17 09:35 W 7 10.00 Partly Cloudy SCT049 78.8 68 70% 81 30.11 0.0
17 09:15 W 7 10.00 Mostly Cloudy BKN047 77 68 74% 79 30.12 0.0
17 08:55 W 5 10.00 Partly Cloudy SCT047 77 68 74% 79 30.11 0.0 0.01
17 08:35 SW 3 10.00 Fair CLR 75.2 68 78% 76 30.11 0.0
17 08:15 Calm 10.00 Fair CLR 73.4 68 83% 30.11 0.0
17 07:55 W 3 10.00 Partly Cloudy SCT015 73.4 68 83% 30.1 0.0 0.01
17 07:35 SW 3 10.00 Fair CLR 71.6 68 88% 30.09 0.0 0.01
17 07:15 Calm 10.00 Partly Cloudy SCT020 71.6 68 88% 30.08 0.0
17 06:55 Calm 10.00 Partly Cloudy SCT020 71.6 68 88% 30.08 0.0 0.01
17 06:35 W 3 10.00 Fair CLR 71.6 68 88% 30.08 0.0 0.01
17 06:15 W 5 10.00 Fair CLR 71.6 68 88% 30.07 0.0 0.01
17 05:55 W 5 10.00 Fair CLR 71.6 68 88% 30.05 0.0 0.01
17 05:35 W 5 10.00 Fair CLR 71.6 68 88% 30.04 0.0 0.01
17 05:15 W 6 10.00 Fair CLR 71.6 68 88% 30.04 0.0 0.01
17 04:35 W 3 10.00 Fair CLR 71.6 68 88% 30.02 0.0 0.01
17 04:15 W 5 10.00 Fair CLR 71.6 68 88% 30.02 0.0 0.01
17 03:55 W 3 10.00 Fair CLR 71.6 68 88% 30.02 0.0 0.01
17 03:35 W 3 10.00 Fair CLR 71.6 68 88% 30.01 0.0 0.01
17 03:15 Calm 10.00 Fair CLR 73.4 68 83% 30.01 0.0
17 02:55 Calm 10.00 Fair CLR 71.6 68 88% 30.02 0.0 0.01
17 02:35 Calm 10.00 Fair CLR 71.6 68 88% 30.03 0.0 0.01
17 02:15 Calm 10.00 Fair CLR 73.4 68 83% 30.03 0.0
17 02:00 W 3 10.00 Fair CLR 73.4 68 83% 30.04 0.0
17 01:35 W 5 10.00 Fair CLR 73.4 68 83% 30.04 0.0 0.01
17 01:15 W 5 10.00 Fair CLR 73.4 68 83% 30.04 0.0 0.01
17 00:55 W 5 10.00 Fair CLR 73.4 68 83% 30.04 0.0 0.02
17 00:35 SW 6 10.00 Fair CLR 73.4 68 83% 30.04 0.0 0.01
17 00:15 W 5 10.00 Fair CLR 73.4 68 83% 30.05 0.0 0.01
16 23:55 SW 5 10.00 Fair CLR 73.4 68 83% 30.05 0.0 0.02
16 23:35 Calm 10.00 Fair CLR 73.4 68 83% 30.06 0.0 0.02
16 23:15 Calm 10.00 Fair CLR 73.4 68 83% 30.05 0.0 0.01
16 22:55 Calm 10.00 Light Rain SCT095 73.4 68 83% 30.04 0.0
16 22:35 Calm 10.00 Light Rain SCT095 SCT120 73.4 68 83% 30.04 0.0
16 22:15 Calm 7.00 Light Rain SCT080 SCT100 BKN120 73.4 68 83% 30.05 0.0
16 21:55 Calm 10.00 Light Rain BKN120 73.4 68 83% 30.05 0.0 0.01
16 21:35 W 5 10.00 Thunderstorm Light Rain in Vicinity OVC110 73.4 68 83% 30.06 0.0
16 21:15 W 3 10.00 Thunderstorm Light Rain in Vicinity SCT090 BKN110 73.4 66.2 78% 30.07 0.0
16 20:55 SW 8 10.00 Partly Cloudy SCT120 73.4 66.2 78% 30.07 0.0 0.01
16 20:35 W 9 10.00 Thunderstorm in Vicinity BKN090 OVC120 75.2 66.2 74% 77 30.07 0.0 0.01
16 20:15 W 6 10.00 Thunderstorm in Vicinity SCT055 OVC080 77 66.2 69% 79 30.05 0.0
16 19:55 W 13 G 21 10.00 Thunderstorm SCT043 SCT055 BKN070 77 66.2 69% 79 30.05 0.0 0.02
16 19:35 W 14 G 20 10.00 Thunderstorm in Vicinity SCT045 SCT055 75.2 69.8 83% 75 30.05 0.0 0.01
16 19:15 SE 3 10.00 Thunderstorm Light Rain in Vicinity SCT044 BKN060 BKN070 77 66.2 69% 79 30.02 0.0 0.01
16 18:55 S 7 2.50 Light Rain SCT013 BKN050 OVC060 75.2 62.6 65% 77 30.04 0.0 0.01
16 18:35 NW 23 G 30 10.00 Thunderstorm Light Rain and Breezy BKN050 BKN120 82.4 68 62% 85 30.03 0.0
16 18:15 W 7 10.00 Fair CLR 89.6 60.8 38% 90 30.01 0.0
16 17:55 SW 8 10.00 Fair CLR 91.4 62.6 38% 92 30 0.0
16 17:35 W 9 10.00 Partly Cloudy SCT050 SCT055 91.4 62.6 38% 92 30 0.0
16 17:15 SW 7 10.00 Partly Cloudy SCT047 SCT050 89.6 60.8 38% 90 30 0.0
16 16:55 SW 9 10.00 Partly Cloudy SCT047 SCT050 91.4 62.6 38% 92 30 0.0
16 16:35 W 7 10.00 Partly Cloudy SCT047 SCT050 89.6 62.6 41% 90 30 0.0
16 16:15 W 6 10.00 Partly Cloudy SCT045 SCT050 91.4 62.6 38% 92 30.01 0.0
16 15:55 SW 7 10.00 Partly Cloudy SCT050 89.6 62.6 41% 90 30.02 0.0
16 15:35 NW 6 10.00 Fair CLR 89.6 64.4 43% 91 30.03 0.0
16 15:15 NW 3 10.00 Partly Cloudy SCT024 SCT034 SCT049 87.8 62.6 43% 88 30.04 0.0
16 14:55 NW 10 10.00 Overcast SCT024 BKN045 OVC090 86 68 55% 89 30.05 0.0
16 14:35 W 7 10.00 Overcast BKN041 BKN050 OVC060 87.8 62.6 43% 88 30.05 0.0
16 14:15 W 6 10.00 Overcast BKN041 BKN050 OVC060 87.8 64.4 46% 89 30.06 0.0
16 13:55 W 6 10.00 Partly Cloudy SCT038 SCT048 SCT050 89.6 64.4 43% 91 30.06 0.0
16 13:35 W 6 10.00 Partly Cloudy SCT034 SCT041 87.8 64.4 46% 89 30.07 0.0
16 13:15 SW 6 10.00 Mostly Cloudy SCT032 BKN043 87.8 66.2 49% 90 30.08 0.0
16 12:55 W 5 10.00 Mostly Cloudy SCT030 BKN041 BKN049 86 66.2 52% 88 30.08 0.0
16 12:35 W 6 10.00 Partly Cloudy SCT026 SCT032 86 66.2 52% 88 30.09 0.0
16 12:15 SW 8 10.00 Mostly Cloudy SCT026 BKN032 86 68 55% 89 30.08 0.0
16 11:55 W 7 10.00 Mostly Cloudy SCT023 BKN029 86 68 55% 89 30.09 0.0
16 11:35 SW 5 10.00 Mostly Cloudy BKN021 BKN028 84.2 68 58% 87 30.09 0.0
16 11:15 W 5 10.00 Mostly Cloudy BKN021 82.4 68 62% 85 30.1 0.0
16 10:55 Calm 10.00 Partly Cloudy SCT019 82.4 68 62% 85 30.1 0.0
16 10:35 SW 6 10.00 Mostly Cloudy SCT017 SCT035 BKN060 80.6 68 66% 83 30.09 0.0
16 10:15 SW 7 10.00 Mostly Cloudy SCT015 BKN033 BKN041 80.6 68 66% 83 30.1 0.0
16 09:55 W 7 10.00 Partly Cloudy SCT015 SCT033 80.6 68 66% 83 30.1 0.0
16 09:35 W 6 10.00 Fair CLR 78.8 66.2 65% 81 30.1 0.0
16 09:15 SW 5 10.00 Fair CLR 78.8 66.2 65% 81 30.09 0.0
16 08:55 SW 6 10.00 Fair CLR 77 66.2 69% 79 30.1 0.0
16 08:35 S 3 10.00 Fair CLR 77 66.2 69% 79 30.09 0.0
16 08:15 S 3 10.00 Fair CLR 77 66.2 69% 79 30.09 0.0
16 07:55 Calm 10.00 Fair CLR 75.2 68 78% 76 30.08 0.0
16 07:35 S 3 10.00 Fair CLR 73.4 66.2 78% 30.06 0.0
16 07:15 W 3 10.00 Fair CLR 73.4 64.4 74% 30.05 0.0
16 06:55 Calm 10.00 Fair CLR 71.6 64.4 78% 30.05 0.0
16 06:35 Calm 10.00 Fair CLR 73.4 64.4 74% 30.04 0.0
16 06:15 NW 5 10.00 Fair CLR 73.4 64.4 74% 30.04 0.0
16 05:55 NW 3 10.00 Fair CLR 73.4 66.2 78% 30.04 0.0
16 05:35 NW 3 10.00 Fair CLR 73.4 66.2 78% 30.04 0.0
16 05:15 W 5 10.00 Fair CLR 73.4 66.2 78% 30.03 0.0
16 04:55 W 8 10.00 Fair CLR 73.4 66.2 78% 30.03 0.0
16 04:35 W 5 10.00 Fair CLR 73.4 66.2 78% 30.03 0.0
16 04:15 NW 3 10.00 Fair CLR 73.4 68 83% 30.03 0.0
16 03:55 NW 5 10.00 Partly Cloudy SCT090 73.4 68 83% 30.04 0.0
16 03:35 NW 5 10.00 Fair CLR 73.4 68 83% 30.04 0.0
16 03:15 NW 5 10.00 Partly Cloudy SCT090 73.4 68 83% 30.04 0.0
16 02:55 Calm 10.00 Partly Cloudy SCT090 73.4 68 83% 30.04 0.0
16 02:35 Calm 10.00 Fair CLR 73.4 68 83% 30.04 0.0
16 02:15 W 5 10.00 Fair CLR 73.4 68 83% 30.04 0.0
16 01:55 W 5 10.00 Fair CLR 75.2 68 78% 76 30.05 0.0
16 01:35 W 6 10.00 Fair CLR 75.2 68 78% 76 30.04 0.0
16 01:15 W 5 10.00 Fair CLR 77 66.2 69% 79 30.05 0.0
16 00:55 W 5 10.00 Fair CLR 77 68 74% 79 30.06 0.0
16 00:35 SW 5 10.00 Fair CLR 77 68 74% 79 30.05 0.0
16 00:15 S 5 10.00 Fair CLR 77 68 74% 79 30.05 0.0
15 23:55 S 5 10.00 Fair CLR 77 68 74% 79 30.04 0.0
15 23:35 Calm 10.00 Fair CLR 77 69.8 79% 79 30.04 0.0
15 23:15 Calm 10.00 Fair CLR 77 68 74% 79 30.04 0.0
15 22:55 Calm 10.00 Fair CLR 77 69.8 79% 79 30.04 0.0
15 22:35 Calm 10.00 Fair CLR 77 68 74% 79 30.04 0.0
15 22:15 S 3 10.00 Fair CLR 78.8 68 70% 81 30.05 0.0
15 21:55 Calm 10.00 Fair CLR 77 68 74% 79 30.06 0.0
15 21:35 Calm 10.00 Fair CLR 77 68 74% 79 30.07 0.0
15 21:15 Calm 10.00 Fair CLR 77 68 74% 79 30.05 0.0
15 20:55 Calm 10.00 Fair CLR 78.8 68 70% 81 30.04 0.0
15 20:35 Calm 10.00 Fair CLR 80.6 66.2 62% 83 30.04 0.0
15 20:15 W 3 10.00 Fair CLR 80.6 64.4 58% 82 30.03 0.0
15 19:55 NW 5 10.00 Partly Cloudy SCT120 80.6 66.2 62% 83 30.04 0.0
15 19:35 NW 3 10.00 Fair CLR 82.4 64.4 55% 84 30.04 0.0
15 19:15 Calm 10.00 Fair CLR 84.2 64.4 51% 86 30.03 0.0
15 18:55 Calm 10.00 Fair CLR 84.2 64.4 51% 86 30.02 0.0
15 18:35 W 5 10.00 Fair CLR 84.2 62.6 48% 85 30.03 0.0
15 18:15 W 6 10.00 Thunderstorm in Vicinity CLR 84.2 64.4 51% 86 30.03 0.0
15 17:55 W 5 10.00 Fair CLR 82.4 64.4 55% 84 30.02 0.0
15 17:35 W 6 10.00 Fair CLR 84.2 66.2 55% 87 30.01 0.0
15 17:15 W 5 10.00 Fair CLR 82.4 66.2 58% 85 30 0.0
15 16:55 W 7 10.00 Light Drizzle SCT035 SCT046 82.4 68 62% 85 30.01 0.0
15 16:35 W 8 10.00 Thunderstorm in Vicinity SCT035 86 66.2 52% 88 30.03 0.0
Date Time (edt) Wind (mph) Vis. (mi.) Weather Sky Cond. Air Dwpt Max. Min. Relative Humidity Wind Chill (°F) Heat Index (°F) altimeter (in) sea level (mb) 1 hr 3 hr 6 hr
6 hour
Temperature (ºF) Pressure Precipitation (in)